Tracking 21605 objects as of 26-Oct-2020
HD Live streaming from Space Station
objects crossing your sky now

NEPALISAT1

Track NEPALISAT1 now!
10-day predictions
NEPALISAT1 is classified as:


NORAD ID: 44329
Int'l Code: 1998-067QE
Perigee: 388.9 km
Apogee: 395.2 km
Inclination: 51.6 °
Period: 92.3 minutes
Semi major axis: 6763 km
RCS: Unknown
Launch date: November 20, 1998
Source: Federal Democratic Republic of Nepal (NPL)
Launch site: TYURATAM MISSILE AND SPACE COMPLEX (TTMTR)

Uplink (MHz):
Downlink (MHz): 437.375
Beacon (MHz): 437.375
Mode: 4800bps GMSK CW
Call sign: JG6YLG
Status: Active

aabbcc
Your satellite tracking list
Your tracking list is empty




NASA's NSSDC Master Catalog

Two Line Element Set (TLE):
1 44329U 98067QE  20300.45945619  .00024103  00000-0  28714-3 0  9995
2 44329  51.6394  36.1486 0004662 128.5605 231.5806 15.60947852 77449
Source of the keplerian elements: AFSPC